QPF
0.02 0.02 0.03 0.02 0.02 0.03 0.02 0.01 0.01 0.01 0.01 0.02 0.02 0.02 0.02 0.03 0.03 0.02 0.02 0.01 0.02 0.02 0.03 0.03 0.03 0.03 0.01 0.01 0.01 0.01 0.01 0.01 0.01 0.01 0.02 0.03 0.03 0.03 0.03 0.04 0.07 0.12 0.15
0.02 0.01 0.02 0.03 0.03 0.03 0.02 0.01 0.01 0.02 0.01 0.01 0.01 0.02 0.02 0.03 0.03 0.04 0.03 0.02 0.02 0.02 0.03 0.04 0.03 0.02 0.02 0.01 0.01 0.01 0.01 0.01 0.01 0.00 0.01 0.01 0.03 0.02 0.02 0.03 0.06 0.09 0.10
0.01 0.01 0.02 0.03 0.04 0.04 0.03 0.02 0.03 0.03 0.02 0.02 0.02 0.02 0.02 0.03 0.02 0.03 0.04 0.03 0.02 0.02 0.02 0.03 0.02 0.02 0.02 0.02 0.01 0.01 0.00 0.00 0.00 0.00 0.00 0.00 0.01 0.01 0.02 0.02 0.04 0.07 0.08
0.01 0.01 0.02 0.05 0.06 0.06 0.06 0.06 0.04 0.03 0.03 0.02 0.02 0.02 0.02 0.02 0.03 0.03 0.04 0.03 0.02 0.02 0.01 0.02 0.02 0.01 0.01 0.01 0.01 0.01 0.01 0.00 0.00 0.00 0.00 0.00 0.01 0.01 0.02 0.03 0.03 0.04 0.05
0.02 0.02 0.03 0.06 0.06 0.05 0.06 0.05 0.04 0.03 0.03 0.03 0.02 0.02 0.02 0.02 0.03 0.03 0.03 0.03 0.02 0.02 0.01 0.01 0.01 0.01 0.01 0.01 0.01 0.01 0.01 0.01 0.00 0.00 0.00 0.01 0.01 0.02 0.02 0.02 0.02 0.03 0.03
0.03 0.02 0.02 0.03 0.05 0.04 0.03 0.04 0.05 0.04 0.04 0.03 0.02 0.02 0.02 0.02 0.02 0.02 0.02 0.02 0.02 0.02 0.01 0.02 0.01 0.01 0.01 0.01 0.01 0.01 0.01 0.01 0.00 0.00 0.00 0.01 0.02 0.03 0.03 0.02 0.02 0.02 0.03
0.02 0.02 0.02 0.03 0.04 0.05 0.05 0.04 0.04 0.03 0.03 0.02 0.03 0.03 0.02 0.02 0.02 0.02 0.02 0.02 0.02 0.02 0.01 0.02 0.01 0.01 0.01 0.01 0.01 0.01 0.00 0.00 0.00 0.00 0.00 0.00 0.01 0.02 0.02 0.02 0.02 0.02 0.02
0.02 0.03 0.03 0.03 0.04 0.05 0.05 0.05 0.05 0.04 0.04 0.04 0.05 0.04 0.03 0.02 0.02 0.02 0.02 0.01 0.01 0.02 0.01 0.01 0.01 0.01 0.01 0.01 0.01 0.01 0.01 0.00 0.00 0.00 0.00 0.00 0.01 0.02 0.02 0.03 0.03 0.02 0.02
0.03 0.03 0.02 0.02 0.03 0.03 0.04 0.04 0.05 0.04 0.03 0.04 0.05 0.04 0.04 0.03 0.02 0.02 0.01 0.01 0.01 0.02 0.01 0.01 0.00 0.00 0.01 0.01 0.01 0.01 0.01 0.00 0.00 0.00 0.00 0.00 0.01 0.02 0.02 0.03 0.03 0.02 0.02
0.03 0.03 0.03 0.02 0.01 0.02 0.02 0.02 0.03 0.02 0.02 0.02 0.02 0.01 0.01 0.02 0.02 0.01 0.01 0.01 0.01 0.02 0.02 0.01 0.01 0.01 0.01 0.01 0.01 0.01 0.01 0.01 0.00 0.00 0.00 0.01 0.01 0.01 0.02 0.02 0.03 0.02 0.01
0.03 0.03 0.03 0.02 0.01 0.01 0.01 0.01 0.02 0.02 0.01 0.00 0.00 0.00 0.00 0.00 0.00 0.00 0.00 0.00 0.01 0.01 0.02 0.02 0.01 0.00 0.00 0.00 0.00 0.00 0.01 0.01 0.01 0.01 0.00 0.01 0.01 0.02 0.02 0.02 0.02 0.02 0.01
0.03 0.02 0.03 0.02 0.02 0.02 0.01 0.01 0.02 0.02 0.01 0.00 0.00 0.00 0.00 0.00 0.00 0.00 0.00 0.01 0.01 0.01 0.01 0.01 0.01 0.00 0.00 0.00 0.01 0.01 0.00 0.00 0.00 0.01 0.01 0.01 0.01 0.02 0.02 0.02 0.02 0.02 0.02
0.03 0.03 0.03 0.03 0.02 0.02 0.02 0.02 0.02 0.02 0.01 0.00 0.00 0.01 0.01 0.00 0.00 0.00 0.01 0.01 0.01 0.01 0.01 0.01 0.00 0.00 0.00 0.01 0.01 0.01 0.00 0.00 0.00 0.00 0.00 0.01 0.01 0.01 0.01 0.02 0.02 0.02 0.02
0.03 0.02 0.02 0.02 0.02 0.02 0.03 0.03 0.03 0.03 0.02 0.01 0.01 0.01 0.01 0.01 0.01 0.00 0.00 0.00 0.00 0.00 0.01 0.01 0.01 0.00 0.00 0.00 0.01 0.01 0.01 0.01 0.00 0.00 0.00 0.00 0.01 0.01 0.02 0.02 0.02 0.02 0.02
0.03 0.02 0.02 0.02 0.02 0.02 0.02 0.03 0.03 0.03 0.03 0.02 0.01 0.01 0.01 0.00 0.01 0.00 0.01 0.01 0.00 0.00 0.01 0.00 0.01 0.01 0.01 0.01 0.01 0.02 0.02 0.02 0.01 0.00 0.00 0.00 0.00 0.01 0.01 0.02 0.02 0.02 0.03
0.02 0.02 0.02 0.01 0.02 0.02 0.02 0.02 0.02 0.03 0.03 0.03 0.02 0.01 0.01 0.01 0.01 0.01 0.01 0.01 0.00 0.01 0.01 0.01 0.00 0.01 0.01 0.01 0.01 0.01 0.01 0.01 0.01 0.01 0.00 0.00 0.00 0.00 0.01 0.02 0.02 0.02 0.03
0.01 0.02 0.03 0.01 0.01 0.01 0.01 0.02 0.02 0.02 0.03 0.03 0.02 0.01 0.01 0.02 0.02 0.02 0.03 0.02 0.02 0.02 0.02 0.02 0.02 0.01 0.01 0.01 0.01 0.01 0.01 0.01 0.01 0.01 0.01 0.00 0.00 0.00 0.01 0.01 0.02 0.02 0.03
0.00 0.01 0.02 0.02 0.01 0.00 0.01 0.01 0.01 0.01 0.02 0.02 0.02 0.01 0.01 0.00 0.00 0.01 0.01 0.02 0.02 0.03 0.04 0.04 0.04 0.04 0.03 0.02 0.01 0.02 0.02 0.02 0.01 0.01 0.00 0.00 0.00 0.00 0.00 0.01 0.01 0.01 0.02
0.01 0.01 0.01 0.01 0.01 0.01 0.01 0.01 0.01 0.01 0.01 0.02 0.02 0.02 0.01 0.00 0.00 0.00 0.00 0.00 0.01 0.01 0.01 0.02 0.02 0.02 0.04 0.04 0.02 0.02 0.01 0.01 0.00 0.00 0.00 0.00 0.00 0.00 0.00 0.01 0.01 0.01 0.02
0.02 0.01 0.01 0.01 0.01 0.01 0.01 0.00 0.00 0.01 0.01 0.01 0.01 0.01 0.01 0.01 0.01 0.00 0.00 0.00 0.00 0.00 0.00 0.00 0.00 0.01 0.02 0.04 0.03 0.02 0.01 0.01 0.01 0.01 0.01 0.01 0.01 0.01 0.01 0.01 0.01 0.01 0.01
0.04 0.02 0.01 0.01 0.01 0.01 0.01 0.00 0.00 0.01 0.01 0.01 0.01 0.01 0.01 0.01 0.02 0.01 0.00 0.00 0.00 0.00 0.00 0.00 0.00 0.00 0.01 0.02 0.03 0.02 0.01 0.00 0.00 0.00 0.01 0.01 0.01 0.01 0.01 0.01 0.01 0.02 0.02
0.03 0.03 0.02 0.01 0.00 0.01 0.01 0.01 0.00 0.01 0.01 0.01 0.01 0.00 0.00 0.01 0.01 0.02 0.01 0.00 0.00 0.00 0.00 0.00 0.00 0.00 0.00 0.01 0.02 0.03 0.02 0.01 0.00 0.00 0.00 0.01 0.01 0.01 0.01 0.01 0.01 0.01 0.01
0.01 0.02 0.03 0.03 0.02 0.01 0.01 0.01 0.01 0.01 0.01 0.01 0.01 0.00 0.00 0.00 0.01 0.01 0.01 0.01 0.00 0.00 0.00 0.00 0.00 0.00 0.00 0.00 0.01 0.01 0.02 0.02 0.01 0.00 0.00 0.00 0.01 0.01 0.01 0.01 0.01 0.01 0.01
0.00 0.01 0.01 0.02 0.03 0.04 0.03 0.02 0.01 0.02 0.01 0.01 0.00 0.00 0.00 0.00 0.00 0.01 0.01 0.02 0.01 0.00 0.00 0.00 0.00 0.00 0.00 0.00 0.00 0.01 0.01 0.01 0.02 0.01 0.00 0.00 0.00 0.00 0.00 0.00 0.00 0.01 0.01
0.00 0.00 0.00 0.00 0.01 0.03 0.05 0.05 0.05 0.03 0.02 0.01 0.01 0.00 0.00 0.00 0.00 0.00 0.01 0.01 0.02 0.01 0.00 0.00 0.00 0.00 0.00 0.00 0.00 0.00 0.01 0.01 0.01 0.01 0.01 0.00 0.00 0.00 0.00 0.00 0.00 0.00 0.00
0.00 0.00 0.00 0.00 0.00 0.01 0.02 0.04 0.05 0.05 0.03 0.02 0.02 0.01 0.00 0.00 0.00 0.00 0.00 0.00 0.01 0.01 0.00 0.00 0.00 0.00 0.00 0.00 0.00 0.00 0.00 0.01 0.01 0.01 0.01 0.00 0.00 0.00 0.00 0.00 0.00 0.00 0.00
MSLP
1015.54 1015.21 1014.99 1014.96 1015.10 1015.36 1015.67 1015.95 1016.14 1016.19 1016.13 1015.99 1015.85 1015.75 1015.73 1015.79 1015.90 1016.03 1016.11 1016.12 1016.05 1015.91 1015.73 1015.56 1015.41 1015.31 1015.26 1015.21 1015.16 1015.08 1014.95 1014.79 1014.60 1014.42 1014.25 1014.11 1014.01 1013.94 1013.88 1013.82 1013.77 1013.73 1013.70
1015.47 1015.12 1014.91 1014.89 1015.06 1015.36 1015.72 1016.04 1016.27 1016.36 1016.35 1016.26 1016.18 1016.14 1016.18 1016.28 1016.43 1016.56 1016.64 1016.62 1016.52 1016.34 1016.13 1015.93 1015.76 1015.64 1015.56 1015.50 1015.42 1015.32 1015.16 1014.97 1014.76 1014.55 1014.37 1014.22 1014.12 1014.04 1013.98 1013.92 1013.87 1013.83 1013.80
1015.46 1015.10 1014.89 1014.89 1015.09 1015.43 1015.83 1016.20 1016.46 1016.61 1016.64 1016.62 1016.59 1016.60 1016.68 1016.82 1016.97 1017.10 1017.15 1017.10 1016.95 1016.73 1016.49 1016.25 1016.06 1015.92 1015.83 1015.75 1015.66 1015.53 1015.36 1015.15 1014.92 1014.69 1014.50 1014.34 1014.22 1014.13 1014.06 1013.99 1013.94 1013.90 1013.88
1015.59 1015.22 1015.02 1015.04 1015.27 1015.64 1016.06 1016.46 1016.75 1016.93 1017.01 1017.02 1017.04 1017.09 1017.19 1017.34 1017.49 1017.59 1017.61 1017.51 1017.33 1017.07 1016.80 1016.54 1016.34 1016.19 1016.08 1015.99 1015.89 1015.74 1015.56 1015.33 1015.08 1014.84 1014.62 1014.43 1014.29 1014.17 1014.07 1014.00 1013.94 1013.90 1013.89
1015.88 1015.53 1015.35 1015.39 1015.63 1016.01 1016.44 1016.83 1017.14 1017.32 1017.42 1017.45 1017.49 1017.56 1017.67 1017.82 1017.95 1018.02 1018.00 1017.88 1017.67 1017.39 1017.10 1016.84 1016.62 1016.47 1016.35 1016.25 1016.13 1015.97 1015.77 1015.52 1015.25 1014.97 1014.72 1014.50 1014.31 1014.15 1014.02 1013.92 1013.84 1013.80 1013.81
1016.36 1016.03 1015.88 1015.94 1016.18 1016.55 1016.95 1017.31 1017.59 1017.75 1017.83 1017.87 1017.91 1017.99 1018.10 1018.24 1018.35 1018.41 1018.37 1018.22 1017.99 1017.71 1017.42 1017.16 1016.95 1016.78 1016.66 1016.54 1016.40 1016.22 1015.99 1015.71 1015.41 1015.10 1014.81 1014.54 1014.29 1014.08 1013.90 1013.76 1013.66 1013.62 1013.63
1016.97 1016.69 1016.57 1016.64 1016.87 1017.21 1017.56 1017.86 1018.07 1018.19 1018.24 1018.27 1018.30 1018.38 1018.50 1018.62 1018.73 1018.77 1018.72 1018.57 1018.34 1018.06 1017.78 1017.53 1017.32 1017.15 1017.01 1016.87 1016.70 1016.49 1016.23 1015.92 1015.59 1015.24 1014.90 1014.57 1014.26 1013.99 1013.75 1013.55 1013.42 1013.37 1013.39
1017.63 1017.41 1017.33 1017.42 1017.64 1017.92 1018.20 1018.42 1018.56 1018.62 1018.63 1018.64 1018.67 1018.75 1018.87 1019.00 1019.10 1019.14 1019.09 1018.94 1018.71 1018.45 1018.18 1017.93 1017.72 1017.55 1017.39 1017.22 1017.02 1016.77 1016.48 1016.14 1015.77 1015.39 1015.01 1014.63 1014.27 1013.92 1013.62 1013.37 1013.20 1013.11 1013.12
1018.24 1018.10 1018.08 1018.19 1018.39 1018.62 1018.82 1018.96 1019.02 1019.03 1019.00 1018.99 1019.02 1019.11 1019.24 1019.38 1019.49 1019.53 1019.47 1019.32 1019.11 1018.85 1018.59 1018.34 1018.13 1017.94 1017.76 1017.56 1017.33 1017.05 1016.73 1016.37 1015.99 1015.58 1015.17 1014.76 1014.35 1013.95 1013.59 1013.27 1013.04 1012.91 1012.89
1018.73 1018.67 1018.72 1018.86 1019.05 1019.23 1019.37 1019.44 1019.43 1019.39 1019.34 1019.33 1019.38 1019.48 1019.63 1019.78 1019.89 1019.92 1019.85 1019.70 1019.48 1019.22 1018.97 1018.72 1018.51 1018.30 1018.10 1017.87 1017.61 1017.32 1016.98 1016.61 1016.22 1015.82 1015.40 1014.98 1014.54 1014.10 1013.68 1013.31 1013.02 1012.83 1012.76
1019.06 1019.10 1019.22 1019.40 1019.59 1019.74 1019.83 1019.84 1019.79 1019.72 1019.66 1019.66 1019.73 1019.86 1020.02 1020.17 1020.27 1020.28 1020.20 1020.03 1019.80 1019.54 1019.28 1019.04 1018.81 1018.60 1018.38 1018.14 1017.87 1017.56 1017.22 1016.85 1016.48 1016.09 1015.69 1015.27 1014.82 1014.36 1013.91 1013.48 1013.12 1012.87 1012.73
1019.23 1019.36 1019.56 1019.78 1019.98 1020.12 1020.18 1020.16 1020.09 1020.00 1019.96 1019.98 1020.07 1020.22 1020.38 1020.52 1020.60 1020.58 1020.47 1020.27 1020.03 1019.76 1019.51 1019.27 1019.05 1018.84 1018.62 1018.37 1018.08 1017.77 1017.43 1017.08 1016.72 1016.36 1015.98 1015.58 1015.15 1014.69 1014.21 1013.75 1013.34 1013.02 1012.81
1019.29 1019.52 1019.79 1020.06 1020.27 1020.40 1020.44 1020.41 1020.33 1020.25 1020.22 1020.26 1020.37 1020.52 1020.68 1020.80 1020.84 1020.79 1020.64 1020.42 1020.16 1019.90 1019.66 1019.43 1019.23 1019.04 1018.82 1018.56 1018.27 1017.95 1017.61 1017.26 1016.91 1016.57 1016.22 1015.86 1015.45 1015.00 1014.53 1014.05 1013.61 1013.23 1012.95
1019.33 1019.63 1019.95 1020.25 1020.48 1020.61 1020.64 1020.59 1020.52 1020.45 1020.44 1020.49 1020.61 1020.76 1020.89 1020.98 1020.98 1020.88 1020.71 1020.47 1020.21 1019.96 1019.75 1019.56 1019.39 1019.21 1019.00 1018.75 1018.44 1018.10 1017.74 1017.38 1017.03 1016.69 1016.36 1016.02 1015.64 1015.23 1014.78 1014.31 1013.85 1013.43 1013.10
1019.41 1019.75 1020.11 1020.42 1020.64 1020.76 1020.79 1020.74 1020.67 1020.61 1020.61 1020.66 1020.77 1020.90 1021.00 1021.04 1021.00 1020.87 1020.67 1020.43 1020.19 1019.98 1019.81 1019.67 1019.54 1019.39 1019.19 1018.93 1018.60 1018.23 1017.82 1017.42 1017.04 1016.69 1016.36 1016.03 1015.68 1015.30 1014.89 1014.45 1014.00 1013.59 1013.22
1019.60 1019.95 1020.29 1020.59 1020.79 1020.90 1020.91 1020.85 1020.78 1020.73 1020.72 1020.77 1020.86 1020.95 1021.01 1021.00 1020.92 1020.77 1020.56 1020.34 1020.14 1019.98 1019.87 1019.78 1019.70 1019.58 1019.39 1019.12 1018.76 1018.33 1017.87 1017.40 1016.97 1016.57 1016.21 1015.88 1015.55 1015.21 1014.84 1014.45 1014.05 1013.65 1013.30
1019.91 1020.22 1020.52 1020.77 1020.94 1021.02 1021.01 1020.95 1020.88 1020.82 1020.81 1020.83 1020.88 1020.92 1020.93 1020.88 1020.76 1020.59 1020.39 1020.20 1020.05 1019.96 1019.91 1019.89 1019.86 1019.77 1019.59 1019.30 1018.90 1018.42 1017.89 1017.35 1016.84 1016.39 1015.99 1015.64 1015.32 1015.00 1014.68 1014.35 1014.00 1013.65 1013.32
1020.29 1020.54 1020.78 1020.97 1021.09 1021.13 1021.11 1021.04 1020.97 1020.91 1020.88 1020.87 1020.87 1020.86 1020.80 1020.70 1020.55 1020.37 1020.18 1020.03 1019.93 1019.90 1019.91 1019.95 1019.96 1019.90 1019.73 1019.43 1019.01 1018.49 1017.90 1017.30 1016.73 1016.22 1015.77 1015.39 1015.06 1014.77 1014.48 1014.20 1013.91 1013.62 1013.34
1020.71 1020.87 1021.03 1021.15 1021.22 1021.24 1021.21 1021.15 1021.08 1021.01 1020.96 1020.91 1020.85 1020.77 1020.66 1020.50 1020.31 1020.11 1019.94 1019.81 1019.75 1019.77 1019.83 1019.92 1019.97 1019.94 1019.79 1019.51 1019.09 1018.56 1017.95 1017.32 1016.71 1016.15 1015.66 1015.24 1014.90 1014.60 1014.34 1014.09 1013.85 1013.61 1013.37
1021.10 1021.17 1021.24 1021.30 1021.34 1021.34 1021.31 1021.27 1021.21 1021.14 1021.07 1020.97 1020.86 1020.71 1020.52 1020.30 1020.06 1019.83 1019.65 1019.54 1019.50 1019.54 1019.63 1019.75 1019.83 1019.84 1019.73 1019.49 1019.11 1018.62 1018.04 1017.43 1016.81 1016.24 1015.72 1015.28 1014.90 1014.58 1014.31 1014.07 1013.86 1013.65 1013.45
1021.41 1021.40 1021.41 1021.42 1021.43 1021.44 1021.43 1021.41 1021.37 1021.31 1021.21 1021.08 1020.90 1020.67 1020.40 1020.11 1019.81 1019.54 1019.33 1019.20 1019.16 1019.20 1019.30 1019.43 1019.54 1019.59 1019.53 1019.36 1019.07 1018.67 1018.18 1017.63 1017.07 1016.51 1015.99 1015.52 1015.10 1014.75 1014.44 1014.18 1013.95 1013.75 1013.56
1021.63 1021.56 1021.52 1021.51 1021.52 1021.54 1021.57 1021.59 1021.57 1021.51 1021.39 1021.21 1020.97 1020.66 1020.31 1019.94 1019.58 1019.26 1019.00 1018.83 1018.75 1018.77 1018.85 1018.97 1019.10 1019.18 1019.20 1019.13 1018.96 1018.69 1018.33 1017.90 1017.42 1016.92 1016.42 1015.94 1015.48 1015.06 1014.70 1014.38 1014.11 1013.88 1013.68
1021.77 1021.67 1021.60 1021.58 1021.61 1021.66 1021.72 1021.77 1021.78 1021.73 1021.59 1021.37 1021.06 1020.68 1020.25 1019.81 1019.38 1018.99 1018.67 1018.45 1018.32 1018.28 1018.33 1018.43 1018.55 1018.68 1018.77 1018.81 1018.77 1018.66 1018.46 1018.17 1017.81 1017.39 1016.92 1016.42 1015.93 1015.45 1015.00 1014.61 1014.28 1014.00 1013.77
1021.86 1021.75 1021.68 1021.67 1021.71 1021.79 1021.88 1021.96 1021.99 1021.93 1021.78 1021.51 1021.15 1020.71 1020.22 1019.71 1019.21 1018.76 1018.39 1018.10 1017.91 1017.82 1017.81 1017.86 1017.98 1018.12 1018.27 1018.41 1018.50 1018.54 1018.49 1018.35 1018.12 1017.78 1017.35 1016.86 1016.32 1015.78 1015.26 1014.79 1014.38 1014.05 1013.78
1021.94 1021.84 1021.78 1021.77 1021.83 1021.92 1022.03 1022.12 1022.15 1022.09 1021.91 1021.62 1021.22 1020.73 1020.19 1019.64 1019.10 1018.60 1018.18 1017.84 1017.59 1017.42 1017.35 1017.35 1017.43 1017.57 1017.75 1017.95 1018.14 1018.30 1018.38 1018.37 1018.23 1017.97 1017.59 1017.11 1016.55 1015.96 1015.38 1014.85 1014.38 1014.00 1013.70
1022.04 1021.96 1021.90 1021.90 1021.95 1022.04 1022.15 1022.23 1022.25 1022.18 1021.98 1021.66 1021.23 1020.72 1020.16 1019.59 1019.03 1018.51 1018.05 1017.67 1017.36 1017.14 1016.99 1016.94 1016.96 1017.07 1017.24 1017.46 1017.70 1017.91 1018.08 1018.15 1018.09 1017.89 1017.55 1017.09 1016.54 1015.93 1015.33 1014.76 1014.26 1013.85 1013.53
Thickness
5708 5711 5712 5713 5714 5714 5714 5715 5715 5715 5716 5716 5716 5717 5717 5718 5718 5718 5718 5718 5718 5719 5719 5719 5719 5719 5719 5719 5718 5718 5717 5717 5716 5716 5716 5716 5716 5715 5714 5714 5714 5713 5714
5707 5708 5709 5709 5710 5710 5710 5710 5711 5711 5711 5712 5712 5713 5713 5714 5714 5714 5714 5714 5714 5714 5714 5714 5715 5714 5714 5714 5714 5714 5713 5713 5712 5712 5711 5711 5711 5711 5710 5710 5710 5709 5710
5704 5704 5704 5705 5705 5705 5705 5706 5706 5707 5707 5707 5707 5708 5708 5709 5709 5709 5710 5710 5710 5709 5709 5710 5710 5710 5710 5710 5709 5709 5709 5708 5708 5707 5707 5706 5707 5707 5706 5706 5706 5705 5705
5699 5699 5699 5700 5700 5700 5700 5700 5701 5702 5702 5702 5702 5703 5703 5703 5704 5704 5704 5704 5704 5704 5704 5704 5705 5705 5705 5705 5705 5704 5704 5704 5703 5703 5702 5702 5702 5702 5702 5702 5701 5700 5700
5693 5694 5694 5695 5695 5695 5695 5695 5695 5696 5696 5697 5697 5697 5698 5698 5698 5698 5698 5698 5699 5699 5699 5699 5699 5700 5700 5700 5700 5699 5699 5699 5698 5698 5698 5698 5698 5698 5698 5697 5697 5696 5695
5686 5687 5688 5688 5689 5689 5689 5689 5689 5690 5690 5690 5691 5692 5692 5692 5692 5692 5692 5693 5693 5693 5693 5694 5694 5694 5694 5694 5695 5694 5694 5694 5693 5693 5693 5693 5693 5693 5693 5692 5692 5692 5691
5679 5680 5681 5681 5682 5682 5682 5682 5682 5683 5684 5684 5684 5685 5686 5686 5686 5686 5686 5687 5687 5687 5687 5688 5688 5689 5689 5689 5689 5689 5689 5689 5688 5688 5688 5688 5689 5688 5688 5688 5687 5687 5686
5671 5673 5674 5674 5674 5675 5675 5675 5675 5676 5676 5677 5677 5678 5679 5679 5680 5680 5680 5681 5681 5681 5681 5681 5682 5683 5683 5684 5684 5683 5683 5683 5683 5683 5683 5683 5683 5683 5683 5682 5682 5681 5681
5663 5665 5666 5666 5667 5667 5667 5667 5667 5668 5669 5669 5670 5670 5671 5672 5672 5673 5673 5674 5674 5675 5675 5675 5676 5676 5677 5677 5677 5677 5677 5678 5678 5678 5678 5678 5678 5678 5677 5677 5676 5675 5675
5654 5656 5656 5658 5658 5658 5659 5659 5659 5660 5660 5661 5661 5662 5663 5664 5664 5665 5666 5667 5667 5668 5669 5669 5670 5670 5670 5671 5671 5671 5671 5671 5671 5671 5672 5672 5672 5672 5672 5671 5670 5670 5669
5645 5646 5647 5649 5649 5650 5650 5650 5651 5651 5652 5653 5653 5654 5655 5655 5656 5657 5658 5659 5660 5660 5661 5662 5663 5663 5663 5663 5664 5664 5664 5664 5664 5664 5665 5665 5666 5666 5665 5665 5664 5663 5663
5636 5637 5639 5640 5641 5642 5642 5642 5642 5643 5644 5644 5645 5646 5647 5647 5648 5650 5650 5651 5652 5653 5653 5654 5655 5656 5656 5656 5656 5656 5656 5656 5657 5657 5657 5658 5659 5659 5659 5658 5658 5657 5656
5628 5629 5630 5632 5632 5633 5633 5633 5633 5634 5635 5636 5637 5638 5639 5640 5640 5641 5642 5643 5643 5644 5645 5646 5647 5647 5647 5647 5648 5648 5648 5648 5649 5649 5650 5650 5651 5651 5651 5651 5651 5650 5650
5621 5621 5622 5623 5624 5624 5624 5624 5624 5625 5625 5626 5627 5628 5630 5631 5631 5632 5632 5633 5634 5635 5636 5637 5638 5638 5639 5639 5639 5640 5640 5640 5641 5641 5642 5643 5643 5644 5644 5644 5644 5643 5643
5614 5614 5615 5615 5616 5616 5616 5616 5616 5616 5616 5617 5618 5619 5621 5622 5622 5622 5623 5624 5625 5626 5627 5628 5629 5630 5630 5631 5631 5631 5632 5632 5633 5633 5634 5634 5635 5635 5635 5636 5636 5636 5635
5606 5607 5607 5607 5607 5608 5608 5608 5607 5607 5608 5608 5609 5610 5611 5612 5613 5613 5614 5615 5615 5616 5617 5618 5619 5620 5621 5622 5622 5623 5623 5624 5625 5625 5625 5625 5625 5626 5626 5627 5627 5627 5627
5598 5599 5599 5599 5599 5599 5599 5599 5599 5599 5599 5599 5600 5601 5602 5603 5604 5604 5604 5605 5605 5606 5608 5609 5609 5610 5611 5612 5613 5614 5615 5615 5616 5616 5616 5616 5616 5616 5616 5616 5617 5617 5617
5590 5590 5590 5591 5590 5591 5591 5590 5590 5590 5590 5590 5590 5591 5592 5593 5593 5594 5594 5594 5595 5596 5597 5598 5598 5599 5600 5601 5602 5604 5605 5605 5606 5607 5607 5607 5607 5606 5606 5607 5607 5607 5607
5581 5581 5580 5581 5581 5581 5581 5581 5581 5580 5581 5580 5580 5581 5582 5582 5583 5584 5584 5584 5585 5586 5586 5587 5587 5587 5588 5590 5592 5594 5595 5596 5597 5597 5597 5597 5597 5596 5596 5597 5597 5596 5597
5571 5571 5571 5571 5571 5571 5571 5571 5571 5571 5571 5571 5571 5571 5571 5572 5573 5574 5574 5574 5575 5575 5575 5575 5576 5576 5577 5578 5581 5583 5584 5585 5586 5587 5587 5587 5586 5586 5586 5586 5586 5586 5586
5561 5561 5561 5561 5561 5561 5561 5560 5560 5560 5560 5561 5561 5561 5561 5562 5563 5563 5563 5563 5564 5564 5564 5564 5564 5564 5565 5566 5567 5569 5572 5574 5575 5575 5576 5575 5575 5575 5575 5575 5575 5575 5575
5551 5551 5551 5550 5551 5551 5551 5551 5550 5550 5550 5550 5550 5550 5551 5552 5552 5552 5552 5552 5553 5553 5552 5552 5552 5551 5552 5552 5552 5553 5556 5560 5562 5564 5564 5564 5563 5563 5563 5564 5564 5564 5564
5541 5541 5542 5541 5541 5541 5541 5540 5539 5539 5538 5538 5539 5540 5540 5541 5541 5541 5541 5541 5542 5542 5541 5541 5540 5540 5539 5539 5539 5539 5540 5542 5545 5550 5551 5551 5551 5551 5551 5551 5552 5552 5553
5532 5531 5531 5530 5530 5530 5530 5529 5528 5527 5527 5528 5529 5529 5529 5530 5530 5531 5531 5531 5530 5530 5530 5530 5530 5529 5528 5527 5526 5526 5526 5527 5528 5534 5538 5538 5538 5538 5538 5539 5539 5540 5541
5523 5521 5520 5520 5519 5519 5520 5519 5518 5517 5516 5517 5517 5518 5518 5519 5519 5519 5520 5520 5519 5519 5519 5519 5518 5517 5517 5516 5515 5514 5514 5514 5514 5515 5522 5524 5524 5525 5525 5525 5526 5527 5528
5512 5511 5510 5509 5508 5508 5508 5508 5507 5507 5506 5506 5506 5506 5506 5507 5507 5508 5508 5508 5508 5508 5508 5508 5507 5507 5506 5505 5504 5504 5503 5502 5502 5501 5505 5508 5509 5512 5512 5513 5514 5515 5515